This is the latest recevied weather packets stored in our database for station/object PA3CPS. If no packets are shown the sender has not sent any weather packets the latest 10 day(s).
| Time | Temp. | Humidity | Pressure | Rain* | Wind** | Luminosity | Snow |
|---|---|---|---|---|---|---|---|
| 1777736288 | 24.44° C | 54% | 1014.9 hPa | 0 mm | - | 566 W/m² | - |
| 1777735985 | 24.44° C | 54% | 1014.9 hPa | 0 mm | - | 594 W/m² | - |
| 1777735684 | 24.44° C | 54% | 1014.9 hPa | 0 mm | - | 594 W/m² | - |
| 1777735384 | 24.44° C | 55% | 1015 hPa | 0 mm | - | 622 W/m² | - |
| 1777735082 | 23.89° C | 55% | 1014.9 hPa | 0 mm | - | 608 W/m² | - |
| 1777734782 | 23.89° C | 55% | 1015 hPa | 0 mm | - | 527 W/m² | - |
| 1777734482 | 23.89° C | 55% | 1015 hPa | 0 mm | - | 399 W/m² | - |
| 1777734183 | 23.89° C | 55% | 1015.2 hPa | 0 mm | - | 357 W/m² | - |
| 1777733881 | 23.89° C | 56% | 1015.3 hPa | 0 mm | - | 401 W/m² | - |
| 1777733577 | 23.89° C | 56% | 1015.3 hPa | 0 mm | - | 455 W/m² | - |
| 1777733277 | 23.33° C | 56% | 1015.4 hPa | 0 mm | - | 403 W/m² | - |
| 1777732975 | 23.33° C | 55% | 1015.4 hPa | 0 mm | - | 418 W/m² | - |
| 1777732672 | 23.89° C | 55% | 1015.5 hPa | 0 mm | - | 390 W/m² | - |
| 1777732370 | 23.89° C | 55% | 1015.6 hPa | 0 mm | - | 462 W/m² | - |
| 1777732069 | 23.33° C | 55% | 1015.7 hPa | 0 mm | - | 578 W/m² | - |
| 1777731766 | 23.89° C | 55% | 1015.9 hPa | 0 mm | - | 357 W/m² | - |
| 1777731466 | 23.89° C | 55% | 1015.8 hPa | 0 mm | - | 510 W/m² | - |
| 1777731162 | 23.33° C | 56% | 1015.8 hPa | 0 mm | - | 459 W/m² | - |
| 1777730860 | 23.33° C | 56% | 1015.9 hPa | 0 mm | - | 329 W/m² | - |
| 1777730559 | 23.33° C | 56% | 1015.9 hPa | 0 mm | - | 297 W/m² | - |
| 1777730256 | 23.33° C | 57% | 1015.9 hPa | 0 mm | - | 517 W/m² | - |
| 1777729955 | 23.33° C | 57% | 1016 hPa | 0 mm | - | 642 W/m² | - |
| 1777729653 | 23.33° C | 56% | 1016.1 hPa | 0 mm | - | 327 W/m² | - |
| 1777729355 | 23.33° C | 55% | 1016 hPa | 0 mm | - | 285 W/m² | - |
| 1777729051 | 23.89° C | 56% | 1016 hPa | 0 mm | - | 330 W/m² | - |
* Rain latest hour (hover to see other rain measurements)
** Current wind speed in m/s (hover to see current wind gust speed)